Location: Espelette
(43.3402°N, 1.4474°W)
Time: 05:17:52
(UTC+00:00)

Feng Yun 1-1 Rocket - Pass Details

Date: 19 May 2025
Orbit: 829 x 932 km, 99.0° (Epoch: 13 June)

Event Time Altitude Azimuth Distance (km) Brightness Sun altitude
Exits shadow 20:03:41 - 163° (SSE) 3,467 6.9 -6.4°
Rises 20:03:47 0° 163° (SSE) 3,430 6.9 -6.4°
Reaches altitude 10° 20:06:07 10° 163° (SSE) 2,512 6.2 -6.7°
Maximum altitude 20:11:44 89° 73° (ENE) 895 4.4 -7.6°
Drops below altitude 10° 20:17:32 10° 346° (NNW) 2,597 7.6 -8.4°
Sets 20:19:59 0° 346° (NNW) 3,556 8.4 -8.7°
